Location: Recife
(8.0585°S, 34.8848°W)
Time: 09:47:23
(UTC-03:00)

S-56A Canister/Altair - Pass Details

Date: 20 April 2026
Orbit: 633 x 2484 km, 38.9° (Epoch: 20 May)

Event Time Altitude Azimuth Distance (km) Brightness Sun altitude
Rises 10:09:27 0° 331° (NNW) 6,141 12.2 63.9°
Reaches altitude 10° 10:14:13 10° 340° (NNW) 5,094 12.0 64.6°
Maximum altitude 10:26:39 34° 38° (NE) 3,150 11.8 66.5°
Drops below altitude 10° 10:36:32 10° 98° (E) 4,077 11.5 67.7°
Sets 10:39:48 0° 107° (ESE) 4,814 11.7 68.1°
